Temperature
20 22 22 23 22 21 21 20 20 21 21 22 21 21 22 23 23 24 24 25 25 25 24 24 24 24 23 23 22 22 21 21 20 20 19 19 19 18 18 18 17 17 17 17
21 21 22 23 22 22 22 21 21 22 22 21 21 22 22 23 23 23 24 25 25 25 25 24 24 24 24 23 23 22 21 21 20 20 19 19 19 18 18 18 17 17 17 17
19 20 22 22 22 22 22 21 21 22 22 21 21 21 22 23 24 24 25 25 25 25 25 25 24 24 24 23 23 22 21 21 20 20 19 19 18 18 18 18 17 17 17 16
17 20 21 21 21 22 22 21 20 21 21 20 21 23 24 25 25 25 25 25 25 25 25 25 24 24 23 23 22 22 21 21 20 20 19 19 19 18 18 17 17 17 17 16
15 18 20 21 21 21 21 21 20 20 20 21 22 22 23 24 25 25 25 25 26 25 25 25 24 24 23 23 22 22 21 21 20 20 19 19 18 18 18 17 17 17 17 17
15 18 19 20 21 21 21 21 20 19 19 20 21 20 21 24 24 24 24 25 25 25 25 24 24 24 23 23 22 22 21 21 20 20 19 19 18 18 18 17 17 17 17 16
15 17 18 19 20 21 21 20 21 21 21 20 20 21 23 24 24 24 24 24 24 24 24 24 24 23 23 22 22 22 21 20 20 20 19 19 18 18 17 17 17 17 17 16
14 17 18 19 19 19 19 20 21 21 21 21 21 22 23 23 24 24 24 24 24 23 23 23 23 23 22 22 22 21 21 20 20 19 19 18 18 18 17 17 17 17 16 16
15 16 17 18 19 20 21 20 21 21 21 21 21 21 22 23 23 23 23 23 23 23 23 22 22 22 22 22 21 21 20 20 19 19 18 18 18 17 17 17 16 16 16 16
14 15 16 18 19 20 20 20 21 21 21 21 21 21 21 22 22 22 22 22 22 22 22 22 22 22 21 21 21 20 20 19 19 18 18 18 18 17 17 17 16 16 16 16
14 15 16 17 18 19 19 20 20 21 21 21 21 21 21 21 22 22 21 21 21 21 21 21 21 21 21 20 20 20 19 19 18 18 18 17 17 17 17 17 16 16 16 16
14 15 15 16 18 18 19 19 20 20 20 20 20 20 21 21 21 21 21 21 21 21 21 21 20 20 20 20 19 19 19 18 18 18 17 17 17 17 17 16 16 16 16 16
15 16 16 17 17 18 18 19 19 19 20 20 20 20 20 20 20 20 20 20 20 20 20 20 20 19 19 19 19 18 18 18 18 17 17 17 17 16 16 16 16 16 16 16
15 16 16 16 17 17 18 18 18 19 19 19 19 19 20 20 19 19 19 20 20 19 19 19 19 19 18 18 18 18 18 17 17 17 17 16 16 16 16 16 16 16 16 16
15 15 15 16 16 17 17 18 18 18 18 18 18 18 19 19 19 19 19 19 19 19 19 19 19 18 18 17 17 17 17 17 17 17 16 16 16 16 16 15 15 15 15 15
14 15 15 15 16 16 17 17 17 17 17 18 18 18 18 18 18 18 18 18 18 18 18 18 18 18 17 17 17 17 17 17 16 16 16 16 16 15 15 15 15 15 15 15
14 14 14 15 15 16 16 17 17 17 17 17 17 17 17 18 17 17 17 18 17 18 17 17 17 17 17 17 16 16 16 16 16 16 16 16 15 15 15 14 15 15 14 14
14 14 14 14 15 15 16 16 16 16 16 16 16 17 17 17 17 17 17 17 17 17 17 17 17 17 16 16 16 16 16 15 15 15 15 15 15 15 14 14 14 14 14 14
14 14 14 14 15 15 15 15 15 16 16 16 16 16 16 16 16 16 16 16 16 16 16 16 16 16 16 16 16 15 15 15 15 15 15 14 14 14 14 14 14 14 14 13
14 14 14 14 14 15 15 15 15 15 15 15 15 15 15 15 16 16 16 15 15 15 15 15 15 15 15 15 15 15 15 15 14 14 14 14 14 14 13 13 13 13 13 13
13 14 14 14 14 14 14 14 15 15 15 15 15 15 15 15 15 15 15 15 15 15 15 15 15 15 15 14 14 14 14 14 14 13 13 13 13 13 13 13 13 13 13 12
13 13 13 13 13 14 14 14 14 14 14 14 14 14 14 14 14 14 14 14 14 14 14 14 14 14 14 14 14 14 13 13 13 13 12 12 12 12 12 12 12 12 12 12
13 13 13 13 13 13 14 14 14 14 14 14 14 14 14 14 14 14 14 14 14 14 14 14 14 14 14 14 13 13 13 13 13 12 12 12 12 12 12 12 12 12 11 11
12 12 12 13 13 13 13 13 14 14 14 14 14 14 14 13 13 13 13 13 13 13 13 13 13 13 13 13 13 12 12 12 12 12 12 12 12 11 11 11 11 11 11 11
12 12 12 12 12 12 13 13 13 13 13 13 13 13 13 13 13 13 13 13 13 13 13 12 12 12 12 12 12 12 12 12 12 12 12 11 11 11 11 11 11 11 10 10
12 12 12 12 12 12 12 12 13 12 13 13 13 13 13 13 13 13 13 13 12 12 12 12 12 12 12 12 12 12 11 11 11 11 11 11 11 11 10 10 10 10 10 10
12 12 12 12 12 12 12 12 12 12 12 12 12 12 12 12 12 12 12 12 12 12 11 11 11 11 11 11 11 11 11 11 11 11 11 10 10 10 10 10 10 9 9 9
Wind_Speed
4 4 4 4 5 7 6 9 9 8 8 9 7 6 6 4 6 6 6 7 8 9 8 8 8 7 8 8 7 8 8 8 8 6 6 5 5 5 4 4 4 3 3 2
1 2 3 2 4 7 5 5 5 4 7 7 4 2 3 5 7 8 8 8 8 8 8 9 9 9 8 8 8 8 8 8 7 6 6 6 6 5 4 4 3 3 3 3
3 2 3 3 4 6 4 3 6 6 7 3 2 4 7 8 8 9 9 8 8 9 10 10 10 9 10 9 8 8 8 7 7 7 7 7 6 5 5 5 4 4 4 4
3 3 6 8 4 4 5 3 3 5 5 4 6 6 5 6 8 8 8 8 8 8 9 8 8 8 8 8 8 8 8 7 7 7 7 6 6 6 5 4 4 4 4 4
5 5 4 5 2 4 4 3 2 3 4 2 0 2 3 3 5 7 8 7 7 8 7 8 9 9 8 8 8 8 8 8 8 8 7 6 7 7 5 5 5 4 4 4
5 5 7 8 4 2 5 2 3 2 3 1 4 2 5 4 2 3 2 3 4 5 6 7 8 9 9 8 8 9 9 8 8 8 8 7 7 6 4 4 5 4 4 4
5 4 6 7 4 3 5 7 4 2 3 3 4 6 5 2 1 1 2 3 5 6 6 7 8 10 9 8 9 8 6 6 6 7 7 7 6 5 4 4 4 4 4 4
5 4 6 4 2 6 6 3 2 2 3 3 4 3 1 0 2 3 3 4 5 6 5 5 7 9 9 9 7 6 6 6 6 6 6 6 5 5 5 5 5 4 4 4
7 6 4 2 2 2 2 2 2 2 2 2 1 2 1 1 2 3 4 4 5 6 5 4 6 8 8 6 6 6 6 6 6 6 5 6 6 6 5 5 5 5 4 5
1 3 2 2 2 2 0 1 1 1 1 1 1 2 1 1 1 2 2 3 4 5 5 4 5 6 6 5 6 7 7 6 6 6 5 5 5 6 6 6 6 6 6 6
1 3 2 3 3 2 2 2 2 2 1 1 1 1 2 2 2 2 2 3 4 5 5 5 4 5 5 5 6 6 6 6 5 6 6 6 5 6 7 7 8 8 8 7
5 5 3 4 5 3 2 2 1 1 2 2 1 2 1 2 3 3 3 3 3 3 4 4 4 4 4 5 6 6 5 5 5 5 5 5 5 4 7 8 9 11 11 9
5 4 4 5 5 3 1 1 1 1 1 2 3 1 2 2 2 3 3 3 3 3 4 4 4 4 4 4 6 6 6 5 4 5 5 6 6 6 5 5 7 9 11 11
4 2 3 3 4 4 1 1 2 2 1 0 1 1 1 2 2 2 2 3 3 3 3 3 4 4 4 5 5 6 6 6 6 5 6 6 6 7 6 6 6 5 7 9
4 2 4 3 3 3 1 1 2 2 2 1 1 1 1 2 2 1 1 2 2 1 2 3 4 4 4 4 5 5 5 4 5 5 5 5 6 6 6 7 6 5 3 4
2 1 1 2 3 2 0 1 1 1 1 2 2 2 1 2 1 1 1 2 2 2 3 4 4 4 4 5 5 4 4 6 5 4 4 4 5 5 6 6 6 6 5 5
2 2 2 2 3 3 2 2 2 2 2 2 2 1 1 1 1 0 0 0 1 3 3 4 4 4 4 5 5 4 3 4 5 4 4 5 5 6 6 5 6 6 5 5
5 5 5 4 4 3 3 2 2 2 3 3 1 1 1 2 2 2 2 1 1 1 2 3 3 2 3 4 3 3 3 3 4 4 4 4 5 6 6 6 6 6 5 4
3 4 5 5 5 4 3 3 3 2 2 2 2 2 2 2 2 3 2 1 1 2 3 2 2 2 2 3 2 2 3 3 4 4 4 4 5 5 5 6 6 5 4 3
2 3 3 3 2 3 3 2 2 2 2 2 2 2 1 2 2 2 1 1 2 3 2 2 2 2 2 2 2 2 3 3 3 3 3 3 4 4 4 5 5 4 4 4
2 2 1 1 2 2 2 2 1 2 2 2 3 3 2 2 2 1 0 2 3 2 1 1 1 1 1 1 1 2 2 2 2 2 2 3 3 2 3 3 3 3 3 3
2 2 2 2 1 1 1 1 1 1 1 1 2 2 1 1 1 1 1 2 2 3 2 1 1 1 0 0 1 1 2 2 2 1 2 2 2 2 2 2 2 2 2 2
3 2 2 2 2 2 1 1 1 1 1 1 1 1 1 2 2 1 2 2 1 2 2 1 1 2 1 1 1 1 1 1 1 1 1 2 2 2 2 2 2 2 2 2
1 1 1 1 1 1 1 1 1 1 1 1 1 2 2 1 1 1 1 1 1 2 1 1 2 2 2 2 2 1 1 0 1 0 0 0 1 1 1 2 1 1 1 2
1 1 1 1 0 1 1 1 1 1 1 1 1 1 0 1 2 1 1 0 1 2 2 2 3 3 3 2 2 2 2 1 1 1 1 1 0 0 0 1 1 1 1 1
0 0 1 1 2 1 1 0 0 1 0 1 1 1 1 1 1 0 1 2 2 3 2 2 3 3 3 3 3 3 3 3 3 2 2 2 1 1 1 1 2 1 1 2
1 1 1 1 1 0 1 1 1 1 1 1 1 1 1 1 1 2 2 2 2 3 3 3 3 3 3 3 3 3 3 3 3 3 3 3 3 3 3 4 3 3 3 3
Wind_Direction
197 199 171 178 179 172 171 176 178 216 223 248 246 236 230 203 177 169 174 175 180 179 179 177 174 174 175 174 171 168 168 178 188 188 183 180 182 188 190 190 197 201 202 208
194 209 178 173 192 182 184 178 193 202 245 252 252 228 205 191 178 184 192 190 188 183 179 181 181 180 177 175 172 166 173 185 184 176 176 182 187 187 188 193 195 194 206 212
211 262 114 224 212 184 181 185 168 199 238 253 230 224 213 203 195 202 202 193 187 188 190 188 185 180 180 177 166 168 177 181 182 182 185 190 190 187 196 203 203 206 217 219
146 120 193 234 235 178 166 198 204 226 252 230 223 233 234 209 201 210 204 196 195 192 190 183 175 172 169 163 164 171 177 182 185 187 191 188 186 195 204 204 205 215 219 224
133 165 245 289 232 159 161 246 230 236 273 267 297 41 317 240 211 215 210 202 196 187 182 172 168 163 156 162 166 173 184 190 190 187 189 191 198 205 208 204 211 218 217 216
131 153 209 235 251 218 132 248 275 213 239 211 113 133 256 269 250 241 209 180 176 163 157 164 168 157 157 169 175 191 197 196 190 186 189 197 204 207 206 203 212 210 220 220
149 182 244 250 270 114 155 231 271 228 212 183 191 216 248 255 212 188 165 152 146 142 158 173 165 157 166 176 195 203 193 186 186 189 193 198 198 198 195 197 201 207 217 226
149 168 239 276 121 161 205 230 225 234 219 207 239 267 306 120 155 138 128 127 142 148 162 164 159 163 176 195 200 180 174 182 190 191 197 199 193 197 191 190 201 215 222 238
184 202 239 275 196 216 180 192 238 233 245 207 249 274 268 221 173 161 155 153 152 155 156 161 167 170 185 199 174 167 173 188 194 194 197 195 195 198 196 196 208 218 221 234
208 260 279 313 327 336 328 220 276 256 248 156 219 257 237 221 192 165 169 162 149 145 159 179 181 180 190 182 169 171 184 195 194 196 205 203 202 201 202 205 211 218 223 232
232 264 330 336 330 324 351 13 18 16 347 221 175 212 216 205 201 187 191 180 164 166 179 190 185 186 184 175 168 178 190 198 199 201 206 211 211 212 211 215 210 211 222 224
222 228 208 267 297 318 353 1 357 40 8 345 225 186 177 186 202 185 183 173 163 169 177 183 181 186 186 181 175 179 191 201 207 208 209 211 214 229 231 225 221 217 218 217
227 240 239 264 294 297 281 315 350 42 56 334 318 287 171 171 177 168 166 166 169 186 191 183 176 187 199 188 178 184 197 206 210 212 214 214 214 219 237 246 236 230 227 223
234 228 263 273 280 296 321 355 23 35 21 279 284 307 161 147 142 153 177 190 179 182 190 181 181 203 206 188 184 192 198 205 211 216 217 218 219 223 228 234 241 247 238 229
288 246 233 262 291 299 323 30 42 12 354 357 350 293 184 163 169 184 194 172 152 165 195 190 197 220 209 191 193 198 199 204 210 217 221 224 224 225 230 233 237 243 242 234
290 310 283 268 267 267 194 99 86 296 301 315 314 270 217 175 164 152 121 135 156 203 220 213 218 224 202 193 200 207 208 210 210 214 221 226 229 231 235 232 235 239 238 236
230 270 270 264 260 264 256 237 230 256 268 274 263 254 110 108 94 324 340 202 221 232 226 215 226 223 204 199 199 207 210 214 218 222 222 226 229 231 236 238 238 238 241 226
221 231 233 230 232 242 268 269 261 246 241 240 224 143 140 166 216 257 275 282 294 282 262 234 224 219 212 208 204 205 208 214 221 228 231 233 235 232 231 235 239 239 241 223
225 234 247 246 239 227 235 254 260 255 253 209 174 185 205 224 236 246 252 260 271 272 284 268 229 220 227 222 208 204 213 225 234 237 236 237 239 235 229 234 237 235 232 219
232 241 243 250 243 217 226 245 247 266 256 197 178 189 223 249 244 242 224 241 255 257 266 275 256 234 233 230 214 214 217 224 235 242 239 236 240 244 240 237 235 231 225 217
236 246 243 250 272 256 227 217 222 261 257 200 183 194 219 255 261 256 249 296 301 306 316 302 280 257 239 245 213 212 220 219 223 237 246 245 245 252 251 240 233 228 220 209
241 227 236 235 226 273 273 232 210 222 236 209 189 168 174 252 283 300 287 267 287 311 325 315 304 277 264 162 179 198 216 217 220 229 235 239 237 234 239 242 237 224 207 196
246 227 227 225 221 246 284 259 195 162 232 215 191 179 199 238 232 233 286 305 320 329 342 335 352 16 54 110 133 151 172 188 215 225 228 227 225 226 222 216 213 203 185 190
237 228 230 224 177 144 298 302 339 322 263 259 239 205 183 198 284 290 281 287 334 353 356 7 36 48 59 59 78 91 88 48 1 333 332 288 246 236 215 202 207 213 189 176
202 202 133 96 55 261 253 290 28 31 28 354 347 8 347 192 212 249 294 24 38 44 36 38 59 72 71 69 69 68 59 42 23 30 47 27 343 297 245 183 182 185 174 157
76 188 245 237 229 227 224 193 236 294 348 360 351 358 25 42 48 5 47 60 60 61 59 52 56 65 67 68 62 57 48 39 36 35 36 31 29 45 56 70 96 108 113 118
34 32 353 337 338 303 195 196 201 231 227 215 267 312 50 75 70 63 65 66 68 69 63 55 53 56 62 61 57 49 40 39 41 47 47 45 48 63 79 80 77 76 82 90
Height
1494 1491 1493 1494 1497 1501 1503 1509 1516 1512 1509 1497 1491 1490 1489 1489 1491 1493 1496 1498 1501 1503 1506 1509 1513 1516 1519 1522 1524 1526 1528 1529 1531 1533 1534 1536 1537 1538 1539 1540 1540 1541 1541 1541
1494 1491 1490 1493 1493 1495 1497 1499 1502 1502 1501 1489 1488 1488 1488 1489 1490 1491 1493 1496 1499 1502 1505 1507 1510 1513 1516 1519 1522 1524 1526 1527 1529 1531 1532 1533 1535 1536 1537 1538 1538 1539 1539 1539
1504 1495 1492 1501 1493 1493 1493 1493 1495 1500 1494 1487 1487 1486 1485 1486 1487 1489 1491 1493 1496 1499 1502 1505 1508 1512 1514 1517 1520 1522 1523 1525 1527 1528 1529 1531 1532 1533 1534 1535 1536 1536 1536 1537
1507 1502 1511 1497 1484 1484 1488 1489 1489 1488 1486 1485 1484 1483 1483 1484 1485 1487 1489 1492 1494 1497 1500 1503 1506 1510 1513 1515 1517 1519 1521 1523 1524 1526 1527 1528 1529 1530 1531 1532 1532 1533 1533 1534
1511 1511 1504 1491 1482 1483 1488 1490 1485 1485 1483 1482 1482 1483 1483 1483 1484 1485 1487 1489 1492 1495 1499 1501 1504 1507 1510 1513 1515 1517 1518 1520 1521 1523 1524 1525 1526 1527 1528 1528 1529 1529 1530 1531
1508 1508 1511 1492 1478 1477 1482 1491 1482 1481 1481 1482 1482 1488 1484 1481 1482 1483 1486 1488 1491 1493 1497 1499 1502 1505 1508 1510 1512 1514 1515 1517 1518 1520 1521 1522 1523 1524 1524 1525 1525 1526 1527 1527
1504 1504 1497 1481 1476 1477 1494 1491 1480 1479 1479 1480 1481 1482 1481 1480 1481 1482 1484 1487 1489 1491 1494 1497 1500 1502 1505 1507 1509 1511 1513 1514 1516 1517 1518 1519 1520 1520 1521 1521 1522 1522 1523 1524
1503 1502 1497 1476 1476 1481 1482 1477 1477 1478 1478 1479 1478 1478 1478 1479 1480 1481 1483 1485 1487 1490 1492 1495 1497 1499 1502 1504 1506 1508 1510 1511 1512 1513 1514 1515 1516 1517 1517 1518 1518 1519 1519 1520
1488 1488 1478 1475 1475 1475 1475 1476 1476 1476 1476 1477 1477 1477 1477 1478 1479 1480 1482 1484 1486 1488 1490 1492 1494 1496 1499 1501 1503 1505 1506 1508 1509 1510 1511 1511 1512 1512 1513 1514 1514 1514 1515 1515
1483 1478 1475 1474 1474 1473 1474 1474 1474 1474 1475 1475 1475 1475 1476 1477 1478 1479 1480 1482 1484 1486 1487 1489 1491 1493 1496 1498 1499 1501 1502 1504 1505 1505 1506 1507 1508 1508 1509 1509 1510 1510 1510 1511
1480 1476 1474 1473 1473 1473 1473 1473 1473 1473 1473 1474 1473 1473 1474 1475 1476 1477 1478 1480 1481 1483 1485 1486 1488 1491 1493 1494 1496 1497 1498 1499 1500 1501 1502 1502 1503 1503 1504 1504 1505 1506 1506 1506
1478 1474 1474 1473 1472 1472 1471 1471 1471 1472 1472 1472 1473 1472 1473 1473 1474 1475 1476 1478 1479 1480 1482 1484 1485 1487 1489 1491 1492 1493 1493 1494 1495 1496 1497 1497 1498 1498 1498 1499 1500 1500 1501 1501
1473 1472 1472 1471 1471 1471 1470 1470 1470 1470 1470 1471 1471 1471 1471 1472 1473 1474 1475 1476 1477 1478 1480 1481 1482 1483 1485 1486 1488 1488 1489 1490 1491 1491 1492 1492 1493 1493 1493 1493 1494 1495 1495 1495
1470 1470 1469 1469 1469 1469 1469 1468 1468 1469 1470 1470 1471 1470 1470 1471 1471 1472 1473 1474 1475 1476 1477 1478 1478 1479 1481 1482 1483 1484 1484 1485 1486 1487 1487 1487 1487 1488 1488 1488 1488 1488 1489 1489
1468 1468 1467 1467 1467 1467 1467 1467 1466 1467 1468 1469 1469 1469 1469 1469 1470 1470 1471 1472 1473 1473 1474 1474 1475 1476 1477 1478 1479 1479 1480 1480 1481 1481 1481 1482 1482 1482 1482 1482 1482 1482 1483 1483
1465 1465 1465 1465 1465 1465 1465 1465 1464 1464 1465 1465 1467 1467 1468 1468 1468 1469 1469 1470 1470 1470 1471 1471 1472 1473 1474 1474 1475 1475 1476 1476 1476 1476 1476 1476 1476 1476 1476 1475 1475 1476 1476 1477
1462 1462 1462 1463 1463 1462 1462 1462 1462 1462 1463 1463 1464 1465 1466 1466 1466 1467 1467 1468 1468 1468 1468 1468 1469 1469 1470 1471 1471 1471 1471 1471 1471 1471 1470 1470 1471 1471 1470 1470 1470 1470 1471 1472
1459 1459 1459 1460 1460 1460 1460 1460 1460 1461 1461 1462 1463 1464 1464 1464 1464 1464 1464 1465 1465 1465 1466 1466 1466 1466 1466 1467 1467 1467 1467 1467 1467 1466 1466 1465 1465 1465 1465 1465 1465 1465 1466 1467
1456 1456 1456 1457 1457 1458 1457 1457 1458 1458 1459 1460 1460 1461 1461 1462 1462 1462 1462 1462 1462 1462 1463 1463 1463 1463 1463 1463 1463 1463 1463 1463 1462 1462 1461 1461 1461 1460 1460 1460 1461 1461 1462 1462
1454 1454 1454 1454 1454 1455 1454 1455 1456 1456 1457 1458 1458 1459 1459 1460 1460 1460 1459 1459 1459 1460 1460 1460 1460 1460 1460 1459 1459 1459 1459 1458 1458 1458 1457 1457 1456 1456 1456 1456 1456 1457 1457 1458
1451 1451 1451 1452 1451 1452 1453 1453 1454 1454 1455 1456 1457 1457 1457 1457 1458 1457 1457 1457 1457 1457 1457 1457 1457 1456 1456 1456 1456 1455 1455 1454 1454 1454 1454 1453 1453 1452 1452 1452 1452 1453 1453 1453
1448 1449 1449 1449 1449 1450 1451 1452 1453 1453 1453 1454 1455 1455 1455 1455 1456 1456 1456 1455 1455 1455 1454 1454 1453 1453 1453 1453 1453 1452 1452 1452 1451 1451 1451 1450 1450 1449 1449 1449 1449 1449 1450 1450
1446 1446 1447 1447 1448 1448 1449 1450 1451 1451 1451 1451 1452 1452 1453 1453 1454 1454 1453 1454 1453 1453 1452 1452 1452 1451 1451 1451 1450 1450 1450 1450 1449 1449 1448 1448 1447 1447 1446 1446 1447 1447 1447 1447
1444 1444 1445 1446 1446 1447 1447 1448 1448 1449 1450 1450 1451 1451 1451 1451 1452 1452 1452 1452 1452 1452 1451 1451 1450 1450 1449 1449 1449 1449 1449 1448 1447 1447 1446 1446 1445 1445 1444 1444 1444 1444 1444 1444
1443 1443 1444 1444 1445 1445 1446 1447 1447 1448 1448 1448 1448 1449 1449 1450 1450 1450 1450 1450 1450 1450 1450 1450 1449 1449 1448 1449 1448 1448 1448 1447 1446 1445 1445 1444 1443 1442 1441 1441 1441 1441 1442 1442
1442 1443 1443 1444 1444 1445 1445 1445 1446 1446 1446 1446 1447 1447 1448 1448 1449 1449 1449 1448 1448 1449 1449 1449 1448 1448 1448 1448 1448 1448 1447 1446 1445 1444 1443 1442 1441 1439 1439 1438 1439 1439 1439 1440
1443 1443 1443 1443 1443 1443 1443 1444 1444 1445 1445 1445 1446 1446 1446 1447 1447 1447 1448 1448 1448 1448 1448 1448 1448 1448 1448 1448 1447 1447 1446 1445 1445 1443 1442 1441 1439 1438 1437 1437 1437 1438 1438 1438